AQI (41)

Current Conditions for Foresthill, CA. Sunny, Dry   
Visibility: 10 miles
Space WX Alerts: CONTINUED ALERT:  Electron 2MeV Integral Flux exceeded 1000pfu ( Latest Alert ) - Issue Time: 2018 Nov 16 1701 UTC

  Summary / Temperature 

Current Temperature
65.0°F
18.3°C
(24/hr Ago)
62.9°F
(Apparent temp)
59.0°F
Comfortable
Wind Chill Graphs
65.0°F 

65.0°F/ 18.3°C
 --- Virtual Temp: 65.9°F ---

 Temp Rate:

 24/hr Difference:

 Avg Running Temp:

 Todays High:

 Todays Low:

 Y-days High:

 Y-days Low:

 Todays WChill:

 Y-days WChill:

 Evapotranspiration:

+3.1°F/hr 

+2.1°F

62.8°F

65.0°F 12:47pm

49.7°F 7:03am

64.2°F 2:26pm

49.2°F 5:39am

43.5°F 7:10am

44.0°F 5:32am

0.048 in

115' Above Ground

 Temperature:

 6'AGL VRS 115'AGL:

 Avg Running Temp:

 Humidity:

 Todays High:

 Todays Low:

 Y-days High:

 Y-days Low:

67.0°F 

+2°F

66.0°F

20% 

68.0°F 12:34pm

53.0°F 12:53am

66.0°F 11:06am

52.0°F 7:20am

Temp & Humidity Graphs

  Wind 

Wind Speed

 Calm

Gusting to

 6.0 mph

Wind from ESE

107°  ESE

Calm

 Avg speed:

 Wind Run:

 Peak Gust:

  2.0 mph 

39.0 miles

  22.0 mph 1:46am

  Almanac  

Moon age: 11 days,7 hours,14 minutes,87%

Waxing Gibbous
87%
Illuminated
11 days in cycle

 Moonrise:

 Moonset:

 Sunrise:

 Sunset:

 Solar Noon:

3:10pm

2:51am

6:50am

4:46pm

11:49am

1min 51s less daylight tomorrow 

  Solar Radiation 

(Current Solar)
  353 W/m2 (62%)
(Todays High)
 608 W/m2@12:15pm
Feels like: 68.4°F in the sun

Rain

 Rain Today:

 Rain Rate (/hr):

 Rain last hour:

 Rain Yesterday:

 This Month:

 Season Total:

43 Days Since Last Rain Day

0.00 in

0.000 in

0.00 in

0.00 in

0.00 in

0.92 in

Updated Time

Updated: 11/19/18  12:52pm

(Updated  sec ago)

Humidity & Barometer

 Humidity:

 Wetbulb:

 Dew Point:

 Barometer:

19% 

51.5°F 

21.7°F 

30.083 inHg 

 Baro Trend:  Falling Slowly 
Northern Calif
Preparedness
Fire 
Level 

    UV Index  

(Current UV)
1.7  Low
(Todays High) @ 12:15pm
2.4   Low

National Weather Service Forecast

This
Afternoon
This Afternoon: Partly Sunny
Partly Sunny
Tonight

Tonight: Partly Cloudy
Partly Cloudy
Tuesday

Tuesday: Mostly Sunny
Mostly Sunny
Tuesday
Night
Tuesday Night: Mostly Cloudy
Mostly Cloudy
Wednesday

Wednesday: Heavy Rain
Heavy Rain
Wednesday
Night
Wednesday Night: Heavy Rain
Heavy Rain
Hi 65 °F ↓ Lo 46 °F Hi 63 °F ↓ Lo 50 °F Hi 51 °F Lo 45 °F

Foresthill Probe 2 Stats  
Foresthill Probe 2: is located on Thomas Street
at 3000 feet. The main Foresthill Weather site
is located on Melody ln at the 2860 foot elevation

Calm
64.3°F
17.9°C
Temp Rate:
+2.1°F
Calm
Gusting to
1.0 mph
(Humidity)
20%
Wind from NNE
30°  NNE
Updated: 19/11/18 - 12:48:05
 Todays High: 64.5°F 12:34
 Todays Low: 46.7°F 07:10
 Rain Today: 0.00 in
 Season Total: 0.63 in

Foresthill Wx: Monthly,Yearly, Highs and Lows 

Foresthill  
This Weather Data is coming from the main Foresthill
Weather site located on Melody ln at the 2860 foot
elevation
Not Foresthill Probe 2
Weather Data
Month
  High
Month
  Low
Year
High
Year
Low
Temp 72.9°F
11/1/18
45.9°F
11/14/18
93.9°F
8/10/18
21.9°F
2/23/18
Humidity 61%
11/2/18
10%
11/8/18
100%
1/8/18
9%
10/15/18
Heat Index 72.7°F
11/1/18
45.2°F
11/11/18
93.3°F
7/25/18
27.1°F
2/20/18
Wind Chill 72.9°F
11/1/18
39.4°F
11/11/18
93.9°F
8/10/18
9.2°F
2/23/18
Wind Gust 34 mph
11/8/18
0 mph
11/1/18
43 mph
3/1/18
0 mph
1/1/18
Barometer 30.48 in
11/13/18
29.91 in
11/5/18
30.55 in
1/27/18
29.60 in
6/16/18
ET 0.14 in
11/8/18
0.00 in
11/1/18
0.25 in
6/24/18
0.00 in
1/1/18
Dew Point 47.2°F
11/1/18
0.7°F
11/8/18
66.9°F
7/24/18
0.7°F
11/8/18
Pacific Satellite US Radar Satellite Imagery Sacramento,CA.  (click to enlarge)
NWS Weather Forecast - Summary
Updated: Monday, November 19, 2018 - 3:00am PST
Locally gusty easterly wind this morning in the eastern foothills and mountains
Current Interstate Highway Conditions for I-80 & US-50

[I 80: IN THE SAN FRANCISCO BAY AREA - SOLANO CO]
no traffic restrictions are reported for this area.

[I 80: IN THE NORTHERN CALIFORNIA AREA & SIERRA NEVADA]
no traffic restrictions are reported for this area.

[US 50: IN THE SACRAMENTO VALLEY & THE LAKE TAHOE BASIN]
  1-way controlled traffic at various locations from 2. 5 mi west of kyburz to 0. 1 mi east of kyburz /at 30 mile stone rd/ (EL DORADO CO) from 7:00am to 5:00pm monday thru tuesday thru 11/20/18 - due to maintenance
NWS Weather Forecast: This Afternoon and Tonight (Updated: Mon, 19-Nov-2018 12:03pm PST)
This
Afternoon
This Afternoon: Partly Sunny
Partly Sunny

Hi 65 °F ↓
NWS forecast: Partly sunny. High near 65, with temperatures falling to around 54 in the afternoon. South southwest wind around 3 mph.
Tonight

Tonight: Partly Cloudy
Partly Cloudy

Lo 46 °F
NWS forecast: Partly cloudy, with a low around 46. Southeast wind around 5 mph.
YR.NO 10 Day Weather forecast
Last update: 11/18/2018 @ 23:37
Next update: 11/19/2018 @ 12:00
Provided by: 22
      Temperature Precipitation Pressure Wind  
Today
11/19/2018
11:00 12:00 66°F   30.05 inHg Light air from southwest 2 mph
  12:00 18:00 66°F   30.02 inHg Light breeze from southwest 4 mph
  18:00 00:00 54°F   30.00 inHg Light air from east-northeast 3 mph
    (Click to enlarge)
meteogram

    Forecast for next 9 days

      Temperature Precip Pressure Wind  
Tuesday
11/20/2018
00:00 06:00 41°F   30.00 inHg Gentle breeze from east-northeast 8 mph
  06:00 12:00 37°F   29.98 inHg Light breeze from east-northeast 6 mph
  12:00 18:00 63°F   29.98 inHg Light breeze from southwest 5 mph
  18:00 00:00 50°F   29.98 inHg Light air from northeast 1 mph
      Temperature Precip Pressure Wind  
Wednesday
11/21/2018
00:00 06:00 39°F   29.99 inHg Light breeze from east 6 mph
  06:00 12:00 41°F 0.13 in 29.99 inHg Light breeze from east 7 mph
  12:00 18:00 43°F 0.29 in 30.02 inHg Gentle breeze from southeast 9 mph
  16:00 22:00 45°F 0.33 in 29.97 inHg Light breeze from southeast 4 mph
  22:00 04:00 43°F 0.20 in 30.04 inHg Light breeze from south-southeast 6 mph
      Temperature Precip Pressure Wind  
Thursday
11/22/2018
04:00 10:00 41°F 0.10 in 30.04 inHg Light breeze from southeast 5 mph
  10:00 16:00 43°F 0.09 in 30.14 inHg Light breeze from south 7 mph
  16:00 22:00 45°F 0.07 in 30.15 inHg Light breeze from south 7 mph
  22:00 04:00 41°F 0.57 in 30.22 inHg Gentle breeze from south-southeast 9 mph
      Temperature Precip Pressure Wind  
Friday
11/23/2018
04:00 10:00 41°F 0.70 in 30.14 inHg Gentle breeze from south-southeast 10 mph
  10:00 16:00 43°F 0.56 in 30.12 inHg Gentle breeze from south-southeast 11 mph
  16:00 22:00 45°F 0.70 in 30.03 inHg Moderate breeze from south 12 mph
  22:00 04:00 45°F 0.29 in 29.99 inHg Gentle breeze from south 11 mph
      Temperature Precip Pressure Wind  
Saturday
11/24/2018
04:00 10:00 45°F   29.97 inHg Light breeze from southwest 7 mph
  10:00 16:00 48°F   30.01 inHg Light air from east 3 mph
  16:00 22:00 48°F   29.96 inHg Light breeze from east-northeast 6 mph
  22:00 04:00 37°F   30.01 inHg Light breeze from east-northeast 5 mph
      Temperature Precip Pressure Wind  
Sunday
11/25/2018
04:00 10:00 34°F   30.07 inHg Light breeze from east-northeast 6 mph
  10:00 16:00 50°F   30.16 inHg Light air from southeast 1 mph
  16:00 22:00 48°F   30.15 inHg Light air from west 2 mph
  22:00 04:00 37°F   30.19 inHg Light breeze from east-northeast 4 mph
      Temperature Precip Pressure Wind  
Monday
11/26/2018
04:00 10:00 37°F   30.19 inHg Light breeze from east-northeast 4 mph
  10:00 16:00 52°F   30.22 inHg Light air from west-northwest 2 mph
  16:00 22:00 52°F   30.14 inHg Light breeze from west-northwest 4 mph
  22:00 04:00 39°F   30.18 inHg Light breeze from east-northeast 6 mph
      Temperature Precip Pressure Wind  
Tuesday
11/27/2018
04:00 10:00 36°F   30.20 inHg Light air from east 2 mph
  10:00 16:00 50°F   30.21 inHg Light air from east 2 mph
  16:00 22:00 48°F   30.11 inHg Light air from southwest 2 mph
  22:00 04:00 43°F 0.04 in 30.09 inHg Light breeze from east-southeast 5 mph
      Temperature Precip Pressure Wind  
Wednesday
11/28/2018
04:00 10:00 43°F 0.41 in 30.00 inHg Gentle breeze from south-southeast 9 mph
  10:00 16:00 43°F 0.35 in 30.11 inHg Gentle breeze from south 8 mph
How Close Are We To this Month's Temperature Record ?
Updated Monday, Nov 19, 2018- 12:45:01 PM

Current Temperature: 65.0°F

November's High: Temperature Record 72.9°F - Set on Thu, Nov 1, 2018 - 2:44:45 PM
We are currently 7.9°F Less than this Month's record High

November's Low: Temperature Record 28.9°F - Set on Thu, Nov 26, 2015 - 6:22:00 AM
We are currently 36.1°F More than this Month's record Low

Weather History For Monday, November 19, 2018


On this Day - In Weather History ...
Data courtesy of weatherforyou.com
powered by Cumulus v1.9.3 (1059)
Ambient Weather VWS v14.00
Top Contact Website Map Copyright © 2007 - 2018 Foresthillweather.com Never base important decisions on this or any weather information obtained from the Internet